Jackson, MN

11:43 AM CST on February 21, 2017 (GMT -0600)
Jackson Municipal

Weather History for KMJQ - October, 2012

Change the Weather History Date:

Monday, October 22, 2012

  Actual Average Record
Temperature  
Mean Temperature 53 °F -  
Max Temperature 60 °F 54 °F 73 °F (2003)
Min Temperature 46 °F 35 °F 21 °F (1997)
Degree Days  
Heating Degree Days 12    
Growing Degree Days 3 (Base 50)    
Moisture  
Dew Point 46 °F    
Average Humidity 76    
Maximum Humidity 88    
Minimum Humidity 63    
Precipitation  
Precipitation 0.00 in - - ()
Sea Level Pressure  
Sea Level Pressure 29.87 in    
Wind  
Wind Speed 9 mph (NNE)    
Max Wind Speed 16 mph    
Max Gust Speed 20 mph    
Visibility 9 miles    
Events      
Averages and records for this station are not official NWS values.
T = Trace of Precipitation, MM = Missing Value Source: NWS Daily Summary

Daily Weather History Graph

Daily Weather History Graph

Search for Another Location

Airport or City:

Trip Planner

Search our weather history database for the weather conditions in past years. The results will help you decide how hot, cold, wet, or windy it might be!

Date:

Astronomy

Oct. 22, 2012 Rise Set
Actual Time 7:43 AM CDT 6:24 PM CDT
Civil Twilight 7:14 AM CDT 6:53 PM CDT
Nautical Twilight 6:40 AM CDT 7:27 PM CDT
Astronomical Twilight 6:07 AM CDT 8:00 PM CDT
Moon 2:44 PM CDT (10/22) 12:18 AM CDT (10/22)
Length of Visible Light 11h 39m
Length of Day
10h 40m
First Quarter, 56% of the Moon is Illuminated
Oct 22
First Quarter
Oct 29
Full
Nov 6
Last Quarter
Nov 13
New
Nov 20
First Quarter

Hourly Weather History & Observations

Time (CDT) Temp. Windchill Dew Point Humidity Pressure Visibility Wind Dir Wind Speed Gust Speed Precip Events Conditions
12:13 AM 46.4 °F 43.5 °F 42.8 °F 87% 29.89 in 7.0 mi North 5.8 mph - N/A   Mostly Cloudy
12:54 AM 46.4 °F 43.5 °F 42.8 °F 87% 29.89 in 7.0 mi NNE 5.8 mph - N/A   Scattered Clouds
1:13 AM 48.2 °F - 44.6 °F 87% 29.89 in 10.0 mi NNE 6.9 mph - N/A   Mostly Cloudy
1:33 AM 50.0 °F - 44.6 °F 82% 29.89 in 10.0 mi North 8.1 mph - N/A   Overcast
1:54 AM 50.0 °F - 44.6 °F 82% 29.89 in 10.0 mi North 4.6 mph - N/A   Overcast
2:13 AM 50.0 °F - 44.6 °F 82% 29.88 in 10.0 mi North 5.8 mph - N/A   Overcast
2:33 AM 50.0 °F - 44.6 °F 82% 29.88 in 10.0 mi North 6.9 mph - N/A   Overcast
2:54 AM 50.0 °F - 44.6 °F 82% 29.88 in 10.0 mi North 8.1 mph - N/A   Overcast
3:13 AM 50.0 °F - 42.8 °F 76% 29.88 in 10.0 mi North 11.5 mph 16.1 mph N/A   Overcast
3:54 AM 48.2 °F - 42.8 °F 82% 29.87 in 10.0 mi North 5.8 mph - N/A   Overcast
4:13 AM 48.2 °F - 42.8 °F 82% 29.87 in 10.0 mi North 6.9 mph - N/A   Overcast
4:33 AM 48.2 °F - 42.8 °F 82% 29.88 in 10.0 mi North 6.9 mph - N/A   Overcast
4:54 AM 48.2 °F - 42.8 °F 82% 29.88 in 10.0 mi North 10.4 mph - N/A   Overcast
5:13 AM 48.2 °F - 42.8 °F 82% 29.88 in 10.0 mi North 9.2 mph - N/A   Overcast
5:33 AM 46.4 °F 41.9 °F 42.8 °F 87% 29.87 in 10.0 mi North 9.2 mph - N/A   Overcast
5:54 AM 46.4 °F 41.5 °F 42.8 °F 87% 29.88 in 10.0 mi North 10.4 mph - N/A   Overcast
6:13 AM 48.2 °F - 42.8 °F 82% 29.87 in 10.0 mi NNE 11.5 mph - N/A   Overcast
6:33 AM 48.2 °F - 42.8 °F 82% 29.87 in 10.0 mi NNE 10.4 mph - N/A   Overcast
6:54 AM 48.2 °F - 42.8 °F 82% 29.87 in 10.0 mi North 11.5 mph - N/A   Overcast
7:13 AM 46.4 °F 42.4 °F 42.8 °F 87% 29.89 in 10.0 mi NNE 8.1 mph - N/A   Overcast
7:33 AM 46.4 °F 41.9 °F 42.8 °F 87% 29.90 in 10.0 mi NNE 9.2 mph - N/A   Overcast
7:54 AM 48.2 °F - 42.8 °F 82% 29.90 in 10.0 mi North 9.2 mph - N/A   Overcast
8:13 AM 48.2 °F - 42.8 °F 82% 29.90 in 10.0 mi North 6.9 mph - N/A   Overcast
8:34 AM 46.4 °F 40.1 °F 42.8 °F 87% 29.90 in 10.0 mi North 15.0 mph - N/A   Overcast
8:53 AM 48.2 °F - 42.8 °F 82% 29.89 in 10.0 mi North 15.0 mph 18.4 mph N/A   Overcast
9:13 AM 48.2 °F - 42.8 °F 82% 29.89 in 10.0 mi North 16.1 mph - N/A   Mostly Cloudy
9:34 AM 50.0 °F - 42.8 °F 76% 29.90 in 10.0 mi North 13.8 mph 17.3 mph N/A   Scattered Clouds
9:53 AM 50.0 °F - 42.8 °F 76% 29.90 in 10.0 mi NNE 13.8 mph - N/A   Scattered Clouds
10:13 AM 50.0 °F - 42.8 °F 76% 29.90 in 10.0 mi NNE 11.5 mph - N/A   Scattered Clouds
10:34 AM 51.8 °F - 42.8 °F 71% 29.89 in 10.0 mi North 12.7 mph - N/A   Overcast
10:53 AM 53.6 °F - 44.6 °F 72% 29.89 in 10.0 mi NNE 12.7 mph - N/A   Scattered Clouds
11:13 AM 55.4 °F - 44.6 °F 67% 29.89 in 10.0 mi NNE 12.7 mph - N/A   Mostly Cloudy
11:34 AM 53.6 °F - 44.6 °F 72% 29.89 in 10.0 mi North 11.5 mph - N/A   Mostly Cloudy
11:53 AM 55.4 °F - 46.4 °F 72% 29.88 in 10.0 mi NNE 12.7 mph - N/A   Mostly Cloudy
12:13 PM 59.0 °F - 46.4 °F 63% 29.88 in 10.0 mi NE 11.5 mph 16.1 mph N/A   Mostly Cloudy
12:34 PM 59.0 °F - 46.4 °F 63% 29.88 in 10.0 mi NNE 13.8 mph 19.6 mph N/A   Scattered Clouds
12:53 PM 59.0 °F - 46.4 °F 63% 29.88 in 10.0 mi NNE 13.8 mph - N/A   Mostly Cloudy
1:13 PM 59.0 °F - 46.4 °F 63% 29.88 in 10.0 mi NNE 12.7 mph - N/A   Overcast
1:34 PM 59.0 °F - 46.4 °F 63% 29.87 in 10.0 mi NE 13.8 mph - N/A   Overcast
1:53 PM 59.0 °F - 46.4 °F 63% 29.87 in 10.0 mi NNE 12.7 mph - N/A   Overcast
2:13 PM 59.0 °F - 46.4 °F 63% 29.87 in 10.0 mi NE 11.5 mph - N/A   Overcast
2:34 PM 59.0 °F - 46.4 °F 63% 29.86 in 10.0 mi NE 11.5 mph - N/A   Overcast
2:53 PM 59.0 °F - 48.2 °F 67% 29.85 in 7.0 mi NE 11.5 mph - N/A   Overcast
3:13 PM 57.2 °F - 48.2 °F 72% 29.85 in 10.0 mi NE 11.5 mph - N/A   Overcast
3:33 PM 57.2 °F - 48.2 °F 72% 29.85 in 10.0 mi NE 10.4 mph - N/A   Overcast
3:53 PM 59.0 °F - 48.2 °F 67% 29.84 in 10.0 mi NE 15.0 mph - N/A   Overcast
4:14 PM 59.0 °F - 48.2 °F 67% 29.84 in 10.0 mi NE 11.5 mph - N/A   Overcast
4:33 PM 60.8 °F - 48.2 °F 63% 29.85 in 10.0 mi ENE 9.2 mph - N/A   Overcast
4:53 PM 60.8 °F - 48.2 °F 63% 29.84 in 10.0 mi NE 11.5 mph - N/A   Overcast
5:13 PM 60.8 °F - 48.2 °F 63% 29.85 in 10.0 mi NNE 9.2 mph - N/A   Overcast
5:33 PM 60.8 °F - 50.0 °F 68% 29.85 in 10.0 mi NNE 8.1 mph - N/A   Overcast
5:53 PM 60.8 °F - 50.0 °F 68% 29.85 in 10.0 mi ENE 9.2 mph - N/A   Overcast
6:13 PM 60.8 °F - 50.0 °F 68% 29.85 in 10.0 mi NE 6.9 mph - N/A   Overcast
6:33 PM 60.8 °F - 50.0 °F 68% 29.85 in 10.0 mi NNE 6.9 mph - N/A   Overcast
6:53 PM 59.0 °F - 50.0 °F 72% 29.85 in 10.0 mi NE 8.1 mph - N/A   Overcast
7:13 PM 59.0 °F - 50.0 °F 72% 29.85 in 10.0 mi NE 8.1 mph - N/A   Overcast
7:33 PM 59.0 °F - 51.8 °F 77% 29.84 in 10.0 mi ENE 11.5 mph - N/A   Mostly Cloudy
7:53 PM 59.0 °F - 51.8 °F 77% 29.84 in 7.0 mi ENE 13.8 mph - N/A   Overcast
8:53 PM 59.0 °F - 51.8 °F 77% 29.83 in 5.0 mi ENE 12.7 mph - N/A   Haze
9:13 PM 59.0 °F - 53.6 °F 82% 29.83 in 4.0 mi ENE 11.5 mph - N/A   Haze
9:34 PM 59.0 °F - 53.6 °F 82% 29.83 in 4.0 mi ENE 9.2 mph - N/A   Haze
9:53 PM 59.0 °F - 53.6 °F 82% 29.83 in 4.0 mi ENE 10.4 mph - N/A   Haze
10:13 PM 59.0 °F - 53.6 °F 82% 29.82 in 4.0 mi East 11.5 mph - N/A   Haze
10:34 PM 59.0 °F - 53.6 °F 82% 29.81 in 5.0 mi ENE 10.4 mph - N/A   Haze
10:53 PM 59.0 °F - 53.6 °F 82% 29.80 in 5.0 mi ENE 11.5 mph - N/A   Haze
11:13 PM 57.2 °F - 53.6 °F 88% 29.80 in 5.0 mi ENE 9.2 mph - N/A   Overcast
11:34 PM 57.2 °F - 51.8 °F 82% 29.80 in 7.0 mi ENE 9.2 mph - N/A   Overcast